When you browse on this site, cookies collect data to enhance your experience and personalize the content and advertising you see.
Visit our Privacy Policy to learn more. By continuing to use the site, you agree to this use of cookies and data.
  • In Austria
  • List of Countries
  • For 7 days
  • Water Temperature
  • Satellite Maps
  • Weather Map
  • News
  • Weather Widgets
  • user-avatar
    Login

    Hourly Weather Graz

    Today, 10 December, Monday

    Time Temperature Precipitation Wind Pressure Humidity
    00:00 +4°C° 0.1 mm 1 mps 717 mmHg 84%
    01:00 +3°C° 0.1 mm 2 mps 717 mmHg 84%
    02:00 +3°C° 0.1 mm 2 mps 718 mmHg 84%
    03:00 +3°C° 0.1 mm 2 mps 718 mmHg 84%
    04:00 +3°C° 0.1 mm 2 mps 718 mmHg 84%
    05:00 +3°C° 0.2 mm 2 mps 719 mmHg 84%
    06:00 +3°C° 0.2 mm 2 mps 719 mmHg 84%
    07:00 +3°C° 0.2 mm 2 mps 720 mmHg 84%
    08:00 +3°C° 0.2 mm 2 mps 720 mmHg 80%
    09:00 +4°C° 0.2 mm 2 mps 721 mmHg 76%
    10:00 +5°C° 0.2 mm 2 mps 721 mmHg 73%
    11:00 +5°C° 0.2 mm 2 mps 722 mmHg 70%
    12:00 +4°C° 0.2 mm 3 mps 722 mmHg 67%
    13:00 +4°C° 0.2 mm 3 mps 722 mmHg 64%
    14:00 +4°C° 0.2 mm 2 mps 722 mmHg 68%
    15:00 +4°C° 0.2 mm 2 mps 722 mmHg 72%
    16:00 +4°C° 0.2 mm 1 mps 722 mmHg 76%
    17:00 +4°C° 0.1 mm 1 mps 722 mmHg 78%
    18:00 +3°C° 0.1 mm 1 mps 723 mmHg 79%
    19:00 +3°C° 0.1 mm 1 mps 723 mmHg 81%
    20:00 +3°C° 0.4 mm 1 mps 723 mmHg 82%
    21:00 +3°C° 0.4 mm 1 mps 723 mmHg 82%
    22:00 +3°C° 0.4 mm 1 mps 723 mmHg 82%
    23:00 +2°C° 0.5 mm 1 mps 723 mmHg 83%

    Tomorrow, 11 December, Tuesday

    Time Temperature Precipitation Wind Pressure Humidity
    00:00 +2°C° 0.5 mm 1 mps 723 mmHg 84%
    01:00 +2°C° 0.5 mm 1 mps 723 mmHg 84%
    02:00 +1°C° 0.1 mm 2 mps 723 mmHg 84%
    03:00 -1°C° 0.1 mm 2 mps 723 mmHg 83%
    04:00 -1°C° 0.1 mm 2 mps 723 mmHg 83%
    05:00 -1°C° 0.1 mm 2 mps 723 mmHg 81%
    06:00 -1°C° 0.1 mm 2 mps 723 mmHg 80%
    07:00 -1°C° 0.1 mm 2 mps 723 mmHg 79%
    08:00 -1°C° 0.1 mm 2 mps 723 mmHg 74%
    09:00 +1°C° 0.1 mm 2 mps 723 mmHg 69%
    10:00 +1°C° 0.1 mm 3 mps 724 mmHg 65%
    11:00 +2°C° 0 mm 3 mps 723 mmHg 62%
    12:00 +2°C° 0 mm 3 mps 723 mmHg 58%
    13:00 +3°C° 0 mm 3 mps 723 mmHg 55%
    14:00 +2°C° 0 mm 3 mps 723 mmHg 59%
    15:00 +2°C° 0 mm 2 mps 723 mmHg 64%
    16:00 +1°C° 0 mm 2 mps 723 mmHg 68%
    17:00 +1°C° 0 mm 2 mps 723 mmHg 70%
    18:00 +1°C° 0 mm 2 mps 723 mmHg 72%
    19:00 -1°C° 0 mm 2 mps 724 mmHg 74%
    20:00 -1°C° 0.1 mm 2 mps 724 mmHg 74%
    21:00 -1°C° 0.1 mm 2 mps 724 mmHg 74%
    22:00 -1°C° 0.1 mm 2 mps 724 mmHg 74%
    23:00 -1°C° 0.1 mm 2 mps 724 mmHg 74%

    Day after tomorrow, 12 December, Wednesday

    Time Temperature Precipitation Wind Pressure Humidity
    00:00 -1°C° 0.1 mm 2 mps 724 mmHg 74%
    01:00 -2°C° 0.1 mm 2 mps 724 mmHg 74%
    02:00 -2°C° 0.1 mm 2 mps 724 mmHg 75%
    03:00 -2°C° 0.1 mm 2 mps 724 mmHg 75%
    04:00 -2°C° 0.1 mm 2 mps 724 mmHg 76%
    05:00 0°C° 0.1 mm 1 mps 724 mmHg 76%
    06:00 0°C° 0.1 mm 1 mps 725 mmHg 76%
    07:00 0°C° 0.1 mm 1 mps 725 mmHg 76%
    08:00 +1°C° 0.1 mm 1 mps 725 mmHg 73%
    09:00 +2°C° 0.1 mm 1 mps 725 mmHg 70%
    10:00 +3°C° 0.1 mm 1 mps 725 mmHg 68%
    11:00 +3°C° 0 mm 1 mps 725 mmHg 64%
    12:00 +4°C° 0 mm 1 mps 725 mmHg 61%
    13:00 +5°C° 0 mm 1 mps 725 mmHg 58%
    14:00 +4°C° 0 mm 1 mps 725 mmHg 63%
    15:00 +2°C° 0 mm 0 mps 724 mmHg 68%
    16:00 +1°C° 0 mm 0 mps 724 mmHg 73%
    17:00 0°C° 0 mm 0 mps 724 mmHg 76%
    18:00 0°C° 0 mm 1 mps 725 mmHg 79%
    19:00 -1°C° 0 mm 1 mps 725 mmHg 82%
    20:00 -1°C° 0 mm 1 mps 725 mmHg 83%
    21:00 -2°C° 0 mm 0 mps 725 mmHg 85%
    22:00 -2°C° 0 mm 0 mps 725 mmHg 86%
    23:00 -3°C° 0 mm 0 mps 725 mmHg 87%

    13 December, Thursday

    Time Temperature Precipitation Wind Pressure Humidity
    00:00 -3°C° 0 mm 0 mps 725 mmHg 88%
    01:00 -3°C° 0 mm 0 mps 725 mmHg 89%
    02:00 -3°C° 0 mm 0 mps 725 mmHg 89%
    03:00 -3°C° 0 mm 0 mps 725 mmHg 90%
    04:00 -3°C° 0 mm 0 mps 725 mmHg 90%
    05:00 -3°C° 0 mm 0 mps 725 mmHg 90%
    06:00 -3°C° 0 mm 0 mps 725 mmHg 90%
    07:00 -3°C° 0 mm 0 mps 725 mmHg 90%
    08:00 -2°C° 0 mm 0 mps 725 mmHg 87%
    09:00 0°C° 0 mm 1 mps 724 mmHg 84%
    10:00 +1°C° 0 mm 1 mps 724 mmHg 81%
    11:00 +1°C° 0 mm 1 mps 724 mmHg 79%
    12:00 +2°C° 0 mm 1 mps 723 mmHg 77%
    13:00 +3°C° 0 mm 1 mps 723 mmHg 75%
    14:00 +2°C° 0 mm 1 mps 722 mmHg 79%
    15:00 +1°C° 0 mm 1 mps 722 mmHg 82%
    16:00 +1°C° 0 mm 1 mps 722 mmHg 86%
    17:00 +1°C° 0 mm 1 mps 722 mmHg 87%
    18:00 0°C° 0 mm 1 mps 722 mmHg 89%
    19:00 0°C° 0 mm 1 mps 721 mmHg 90%
    20:00 0°C° 0 mm 1 mps 721 mmHg 91%
    21:00 0°C° 0 mm 1 mps 721 mmHg 91%
    22:00 0°C° 0 mm 1 mps 721 mmHg 91%
    23:00 0°C° 0.1 mm 1 mps 721 mmHg 91%

    14 December, Friday

    Time Temperature Precipitation Wind Pressure Humidity
    00:00 0°C° 0.1 mm 1 mps 721 mmHg 92%
    01:00 0°C° 0.1 mm 1 mps 721 mmHg 92%
    02:00 0°C° 0.3 mm 1 mps 720 mmHg 93%
    03:00 0°C° 0.3 mm 1 mps 720 mmHg 93%
    04:00 0°C° 0.3 mm 1 mps 720 mmHg 94%
    05:00 0°C° 0.2 mm 1 mps 720 mmHg 94%
    06:00 0°C° 0.2 mm 1 mps 720 mmHg 94%
    07:00 -1°C° 0.2 mm 1 mps 720 mmHg 94%
    08:00 0°C° 0.1 mm 1 mps 721 mmHg 92%
    09:00 +1°C° 0.1 mm 1 mps 721 mmHg 90%
    10:00 +1°C° 0.1 mm 1 mps 722 mmHg 88%
    11:00 +2°C° 0 mm 1 mps 722 mmHg 86%
    12:00 +2°C° 0 mm 1 mps 721 mmHg 84%
    13:00 +3°C° 0 mm 1 mps 721 mmHg 82%
    14:00 +2°C° 0 mm 1 mps 721 mmHg 85%
    15:00 +2°C° 0 mm 1 mps 722 mmHg 87%
    16:00 +1°C° 0 mm 1 mps 722 mmHg 90%
    17:00 +1°C° 0 mm 1 mps 722 mmHg 92%
    18:00 0°C° 0 mm 1 mps 722 mmHg 93%
    19:00 -1°C° 0 mm 1 mps 722 mmHg 94%
    20:00 -1°C° 0 mm 1 mps 722 mmHg 94%
    21:00 -2°C° 0 mm 0 mps 723 mmHg 94%
    22:00 -2°C° 0 mm 0 mps 723 mmHg 94%
    23:00 -2°C° 0 mm 0 mps 723 mmHg 93%

    15 December, Saturday

    Time Temperature Precipitation Wind Pressure Humidity
    00:00 -2°C° 0 mm 0 mps 723 mmHg 93%
    01:00 -1°C° 0 mm 1 mps 723 mmHg 93%
    02:00 -2°C° 0 mm 0 mps 723 mmHg 92%
    03:00 -1°C° 0 mm 0 mps 723 mmHg 92%
    04:00 -1°C° 0 mm 0 mps 723 mmHg 92%
    05:00 -2°C° 0 mm 0 mps 723 mmHg 92%
    06:00 -2°C° 0 mm 0 mps 723 mmHg 92%
    07:00 -2°C° 0 mm 0 mps 724 mmHg 92%
    08:00 -1°C° 0 mm 0 mps 724 mmHg 88%
    09:00 +1°C° 0 mm 0 mps 724 mmHg 84%
    10:00 +2°C° 0 mm 0 mps 725 mmHg 80%
    11:00 +3°C° 0 mm 0 mps 725 mmHg 78%
    12:00 +3°C° 0 mm 0 mps 725 mmHg 76%
    13:00 +4°C° 0 mm 0 mps 725 mmHg 74%
    14:00 +3°C° 0 mm 0 mps 725 mmHg 79%
    15:00 +2°C° 0 mm 0 mps 725 mmHg 84%
    16:00 +1°C° 0 mm 0 mps 725 mmHg 89%
    17:00 0°C° 0 mm 0 mps 725 mmHg 90%
    18:00 0°C° 0 mm 0 mps 725 mmHg 91%
    19:00 -1°C° 0 mm 0 mps 725 mmHg 93%
    20:00 -1°C° 0.1 mm 0 mps 725 mmHg 93%
    21:00 0°C° 0.1 mm 0 mps 726 mmHg 92%
    22:00 0°C° 0.1 mm 0 mps 726 mmHg 92%
    23:00 0°C° 0.1 mm 0 mps 726 mmHg 92%
    Show more